| time (UTC) | temp F | wind direction | speed knots | gust knots | rain 1hr in | rain 24hr in | rain mn in | humidity % | barometer mb |
| 20260504034555 | 56 | 128 | 6.1 | 13.0 | 0.00 | 0.00 | 0.00 | 39 | 999.0 |
| 20260504033056 | 56 | 131 | 7.8 | 13.9 | 0.00 | 0.00 | 0.00 | 40 | 999.3 |
| 20260504031549 | 56 | 134 | 7.8 | 16.5 | 0.00 | 0.00 | 0.00 | 38 | 999.7 |
| 20260504030052 | 56 | 150 | 6.1 | 13.0 | 0.00 | 0.00 | 0.00 | 39 | 1000.1 |
| 20260504024550 | 55 | 150 | 7.8 | 12.2 | 0.00 | 0.00 | 0.00 | 40 | 1000.4 |
| 20260504023048 | 55 | 150 | 6.1 | 9.6 | 0.00 | 0.00 | 0.00 | 42 | 1000.5 |
| 20260504021552 | 55 | 150 | 7.0 | 11.3 | 0.00 | 0.00 | 0.00 | 42 | 1000.7 |
| 20260504014553 | 57 | 150 | 4.3 | 7.8 | 0.00 | 0.00 | 0.00 | 34 | 1001.2 |
| 20260504013050 | 59 | 150 | 3.5 | 6.1 | 0.00 | 0.00 | 0.00 | 32 | 1001.4 |
| 20260504011549 | 61 | 150 | 3.5 | 6.1 | 0.00 | 0.00 | 0.00 | 30 | 1001.6 |
| 20260504010048 | 63 | 150 | 2.6 | 8.7 | 0.00 | 0.00 | 0.00 | 28 | 1001.8 |
| 20260504004546 | 63 | 150 | 4.3 | 12.2 | 0.00 | 0.00 | 0.00 | 28 | 1002.0 |
| 20260504003049 | 64 | 150 | 8.7 | 15.6 | 0.00 | 0.00 | 0.00 | 27 | 1002.1 |
| 20260504001548 | 64 | 149 | 7.8 | 16.5 | 0.00 | 0.00 | 0.00 | 28 | 1002.3 |
| 20260504000052 | 64 | 148 | 5.2 | 13.0 | 0.00 | 0.00 | 0.00 | 27 | 1002.4 |
| 20260503234550 | 64 | 147 | 6.1 | 14.8 | 0.00 | 0.00 | 0.00 | 27 | 1002.4 |
| 20260503233048 | 64 | 150 | 7.8 | 13.9 | 0.00 | 0.00 | 0.00 | 28 | 1002.4 |
| 20260503231553 | 64 | 153 | 7.0 | 14.8 | 0.00 | 0.00 | 0.00 | 27 | 1002.7 |
| 20260503230059 | 65 | 151 | 10.4 | 16.5 | 0.00 | 0.00 | 0.00 | 26 | 1003.1 |
| 20260503224555 | 64 | 153 | 7.8 | 20.9 | 0.00 | 0.00 | 0.00 | 26 | 1003.2 |
| 20260503223052 | 65 | 142 | 9.6 | 19.1 | 0.00 | 0.00 | 0.00 | 26 | 1003.3 |
| 20260503221550 | 65 | 135 | 12.2 | 20.0 | 0.00 | 0.00 | 0.00 | 27 | 1003.4 |
| 20260503220053 | 65 | 128 | 9.6 | 20.0 | 0.00 | 0.00 | 0.00 | 27 | 1003.2 |
| 20260503214550 | 66 | 157 | 9.6 | 18.2 | 0.00 | 0.00 | 0.00 | 27 | 1003.3 |
| 20260503213109 | 65 | 159 | 9.6 | 16.5 | 0.00 | 0.00 | 0.00 | 27 | 1003.3 |
| 20260503211611 | 65 | 153 | 6.1 | 17.4 | 0.00 | 0.00 | 0.00 | 28 | 1003.4 |
| 20260503210052 | 64 | 124 | 13.0 | 21.7 | 0.00 | 0.00 | 0.00 | 27 | 1003.4 |
| 20260503204555 | 64 | 141 | 11.3 | 17.4 | 0.00 | 0.00 | 0.00 | 28 | 1003.6 |
| 20260503203052 | 64 | 151 | 13.0 | 20.9 | 0.00 | 0.00 | 0.00 | 28 | 1003.9 |
| 20260503201547 | 64 | 157 | 8.7 | 17.4 | 0.00 | 0.00 | 0.00 | 27 | 1004.0 |
| 20260503200058 | 64 | 149 | 12.2 | 18.2 | 0.00 | 0.00 | 0.00 | 28 | 1004.2 |
| 20260503194603 | 63 | 155 | 11.3 | 20.0 | 0.00 | 0.00 | 0.00 | 27 | 1004.3 |
| 20260503193141 | 63 | 165 | 9.6 | 19.1 | 0.00 | 0.00 | 0.00 | 27 | 1004.5 |
| 20260503191549 | 62 | 165 | 16.5 | 22.6 | 0.00 | 0.00 | 0.00 | 26 | 1004.6 |
| 20260503190050 | 62 | 150 | 12.2 | 24.3 | 0.00 | 0.00 | 0.00 | 25 | 1004.7 |
| 20260503184559 | 62 | 151 | 8.7 | 19.1 | 0.00 | 0.00 | 0.00 | 23 | 1004.8 |
| 20260503183050 | 61 | 148 | 13.9 | 20.9 | 0.00 | 0.00 | 0.00 | 21 | 1005.1 |
| 20260503181608 | 61 | 144 | 13.9 | 20.9 | 0.00 | 0.00 | 0.00 | 21 | 1005.3 |
| 20260503180107 | 61 | 163 | 13.9 | 25.2 | 0.00 | 0.00 | 0.00 | 22 | 1005.5 |
| 20260503174557 | 61 | 165 | 10.4 | 23.5 | 0.00 | 0.00 | 0.00 | 25 | 1005.4 |
| 20260503173059 | 60 | 161 | 13.9 | 22.6 | 0.00 | 0.00 | 0.00 | 21 | 1005.5 |
| 20260503171551 | 60 | 142 | 13.9 | 23.5 | 0.00 | 0.00 | 0.00 | 22 | 1005.6 |
| 20260503081549 | 46 | 163 | 0.0 | 0.9 | 0.00 | 0.00 | 0.00 | 77 | 1005.6 |
| 20260503071557 | 51 | 163 | 0.9 | 6.1 | 0.00 | 0.00 | 0.00 | 69 | 1006.2 |
| 20260503054549 | 49 | 163 | 3.5 | 7.0 | 0.00 | 0.00 | 0.00 | 79 | 1007.1 |
| 20260503053048 | 49 | 163 | 4.3 | 8.7 | 0.00 | 0.00 | 0.00 | 82 | 1007.2 |
| 20260503051557 | 50 | 163 | 1.7 | 5.2 | 0.00 | 0.00 | 0.00 | 79 | 1007.3 |
| 20260503050057 | 50 | 163 | 0.9 | 3.5 | 0.00 | 0.00 | 0.00 | 80 | 1007.5 |
| 20260503044602 | 50 | 0 | 0.0 | 0.9 | 0.00 | 0.00 | 0.00 | 78 | 1007.8 |
| 20260503043058 | 51 | 0 | 0.0 | 1.7 | 0.00 | 0.00 | 0.00 | 76 | 1007.8 |
| 20260503041550 | 51 | 0 | 0.0 | 5.2 | 0.00 | 0.00 | 0.00 | 77 | 1008.0 |
| 20260503040057 | 52 | 163 | 3.5 | 5.2 | 0.00 | 0.00 | 0.00 | 73 | 1007.8 |